Dewpoint
56 56 56 56 56 57 57 57 57 58 58 59 59 60 61 60 59 55 30 39 48 68 64 37 43 44 57 59 60 58 49 45 39 46 50 58 58 60 60 60 62 61 63 66 68
55 55 55 56 56 57 57 57 57 58 58 58 59 60 61 60 51 37 51 66 66 68 26 30 32 38 42 45 56 52 47 37 40 49 53 57 58 58 59 61 62 64 67 68 68
54 55 55 55 55 56 57 57 57 57 58 58 59 60 60 59 45 30 68 65 68 59 31 32 32 37 27 26 46 48 33 38 43 49 52 54 56 57 59 60 62 62 65 66 66
54 54 54 55 55 55 55 55 56 57 58 58 59 61 60 55 19 35 71 71 68 40 35 33 34 27 21 23 30 26 30 42 44 50 52 53 57 58 57 59 63 65 66 66 65
53 53 54 54 54 54 55 55 55 56 58 58 59 60 55 36 29 44 68 65 34 22 28 33 31 27 26 26 29 23 31 41 45 48 49 52 53 57 58 61 63 65 65 65 65
54 54 54 54 55 55 55 55 55 56 59 58 59 59 44 33 37 44 36 32 21 19 23 28 28 23 25 34 30 30 26 41 45 47 50 51 53 56 59 62 62 63 64 64 64
53 54 54 54 54 54 55 55 55 55 60 59 59 55 47 27 38 45 33 20 17 20 21 24 24 27 33 31 34 29 25 42 45 46 48 50 51 53 59 61 61 61 62 62 63
54 54 54 54 54 54 54 54 54 55 60 58 59 54 35 41 37 38 31 19 16 19 23 23 21 28 33 32 30 26 23 30 42 45 47 47 48 52 57 59 59 59 61 62 63
53 53 53 53 53 53 53 53 54 56 60 59 52 50 35 45 34 33 23 20 19 19 21 19 28 28 28 28 26 26 19 27 39 43 43 46 47 51 53 55 58 58 60 60 61
53 53 53 53 52 52 52 53 55 56 57 54 49 40 36 32 31 35 30 24 19 19 16 23 22 23 24 25 23 24 24 25 36 40 43 45 46 49 51 52 52 58 59 59 59
52 52 52 52 52 52 50 44 48 46 46 26 29 39 35 33 32 30 34 32 21 17 12 18 17 17 20 25 25 25 25 23 26 40 43 43 46 48 50 50 50 54 58 58 58
52 52 52 52 51 51 48 37 42 36 33 42 33 37 35 33 28 27 30 30 19 14 17 14 14 16 20 21 23 22 19 22 22 41 42 43 45 47 49 49 49 51 53 55 56
52 52 52 52 50 48 41 40 37 34 32 30 40 39 37 37 32 24 29 24 20 15 12 12 12 18 17 16 15 14 20 20 17 30 40 42 42 45 47 49 49 50 51 53 55
52 52 51 50 40 41 34 33 33 32 27 29 29 29 37 34 26 29 28 23 19 15 16 12 12 13 14 13 13 17 26 23 19 17 30 37 35 41 44 47 48 49 50 51 53
51 51 51 51 43 41 34 37 31 31 22 30 27 29 32 28 29 28 25 20 16 16 14 13 14 11 12 10 17 18 26 21 21 19 19 24 31 36 43 45 47 48 50 51 52
51 51 51 45 42 41 39 34 27 28 27 29 25 29 25 22 27 28 22 21 19 18 18 14 16 12 11 11 18 25 24 25 20 17 14 16 18 23 38 42 45 48 50 50 52
51 50 49 45 35 33 36 29 21 26 29 22 23 28 21 17 16 22 21 18 16 12 13 18 17 12 15 20 23 21 21 20 20 15 16 18 20 22 35 39 45 47 50 50 51
50 50 47 44 45 42 34 23 23 25 25 25 25 27 21 14 13 22 18 19 17 18 21 19 19 18 19 22 20 21 20 21 16 18 17 24 20 22 36 36 44 47 49 50 51
50 41 39 37 43 35 31 20 19 26 24 19 20 23 19 18 15 16 17 16 16 15 13 22 20 23 21 21 22 21 20 21 18 26 19 23 31 34 37 37 36 41 47 50 51
45 40 38 33 41 34 30 25 19 23 21 18 17 22 18 17 15 16 21 17 16 15 21 23 19 20 20 23 25 20 21 21 20 20 16 26 31 31 34 34 35 39 43 49 51
41 38 38 32 38 34 24 22 19 19 19 19 18 15 19 22 17 16 16 21 18 17 20 18 25 21 26 21 18 17 21 21 21 24 20 27 29 36 35 39 40 45 50 54 51
38 31 33 31 29 33 27 19 25 13 15 15 18 16 16 19 17 20 17 21 22 19 17 19 21 18 19 23 20 17 16 19 22 19 28 28 29 35 40 39 42 48 57 60 59
36 35 33 28 24 26 28 25 23 21 18 14 13 17 16 16 19 26 21 19 24 22 20 22 20 17 18 20 21 17 17 23 26 26 22 24 28 33 35 38 43 52 59 59 60
37 32 29 29 28 25 23 23 22 23 20 19 14 13 12 14 17 22 26 28 23 24 48 36 21 19 17 20 22 19 18 22 22 22 22 28 29 32 34 35 45 52 60 59 59
37 34 30 29 30 31 29 24 22 21 23 17 13 12 12 11 13 17 27 27 30 38 42 24 22 23 20 21 24 22 20 20 20 20 19 20 28 31 36 44 49 58 60 59 60
35 34 37 36 35 29 33 29 28 25 24 23 17 13 12 12 14 13 24 27 27 31 31 26 23 27 23 24 20 18 19 22 20 26 27 29 28 37 42 45 52 62 64 62 62
40 40 38 37 33 30 28 28 29 29 28 25 23 22 19 13 14 16 22 25 25 25 27 25 25 23 20 22 25 25 23 22 23 22 26 34 36 43 42 43 59 64 64 64 62
Lifted_Index
16 16 16 15 15 15 15 14 12 12 11 10 11 11 11 10 8 6 5 5 6 6 6 5 5 3 1 -2 -2 -2 -2 -2 -1 -1 -2 -3 -3 -2 -1 -1 -1 -0 -0 -0 -0
16 16 16 16 16 15 15 14 13 12 11 11 11 11 11 10 8 6 5 5 6 6 5 4 3 2 1 -0 -1 -2 -2 -2 -1 -1 -2 -3 -3 -2 -1 -1 -1 -1 -1 -0 -0
17 17 17 17 16 16 15 15 14 13 12 11 11 11 11 10 8 6 6 5 6 5 5 3 2 1 1 0 -0 -1 -1 -1 -1 -1 -2 -3 -2 -1 -1 -1 -1 -1 -1 -0 0
17 17 17 17 17 16 16 15 14 13 12 12 12 12 11 9 7 6 6 6 6 6 4 3 1 0 0 0 0 -0 -1 -1 -1 -1 -2 -2 -2 -1 -1 -2 -2 -2 -1 -0 0
18 18 18 18 17 17 16 15 14 14 13 13 13 12 10 8 7 7 7 7 6 6 4 2 2 1 1 0 -0 -1 -1 -1 -0 -1 -1 -1 -2 -2 -2 -2 -2 -2 -1 -1 -0
18 18 18 18 18 17 17 15 14 13 13 13 13 12 10 8 7 7 7 7 7 6 5 3 3 3 2 1 0 -0 -1 -0 -0 -1 -1 -1 -1 -2 -2 -2 -2 -2 -1 -1 -0
18 18 18 18 18 17 17 15 13 13 13 13 13 11 9 8 8 7 7 7 7 6 6 5 4 3 3 2 1 0 -0 -0 -0 -0 -1 -1 -1 -1 -1 -1 -1 -1 -1 -1 -0
18 18 18 18 18 17 17 15 13 12 12 13 12 10 9 8 8 7 7 7 7 7 6 6 5 4 3 2 1 1 0 -0 -0 -0 -0 -1 -1 -1 -1 -2 -1 -1 -1 -1 -0
18 18 18 18 18 17 17 15 13 11 12 12 12 10 8 8 8 7 7 7 7 7 6 6 5 3 3 2 1 0 -0 -0 -0 0 0 -0 -1 -1 -1 -2 -2 -1 -1 -1 -1
18 18 18 18 17 17 16 14 12 10 10 11 10 9 8 8 8 7 7 7 7 7 6 5 3 3 2 1 0 0 -0 -0 0 0 0 0 -0 -1 -1 -1 -1 -2 -1 -1 -1
18 18 18 18 17 16 15 13 10 9 9 9 9 9 8 8 8 7 7 7 7 6 5 4 3 2 1 1 1 0 0 -0 0 0 0 1 0 -0 -1 -1 -1 -1 -1 -1 -1
17 17 17 17 17 16 14 12 11 10 9 9 9 8 8 8 8 8 7 7 6 5 4 3 2 2 2 1 1 1 0 -0 -0 0 0 1 1 1 -0 -0 -0 -1 -1 -1 -0
16 16 16 16 16 15 13 13 12 12 10 8 8 8 8 8 8 8 8 7 6 4 3 3 2 2 2 2 1 0 -0 -0 -0 0 0 0 1 1 0 0 -0 -0 -0 -0 -0
16 16 16 16 15 13 13 13 13 11 8 6 7 7 7 7 7 7 8 7 6 4 3 3 2 3 3 2 1 0 -0 -0 -0 -0 -0 0 1 1 1 0 -0 -0 -0 -0 -0
17 16 16 15 14 13 12 12 12 9 5 5 6 7 7 7 6 7 7 7 6 5 4 3 3 3 3 3 1 0 0 -0 -0 -0 -0 0 1 1 1 0 -0 -0 -0 -0 0
18 17 16 15 14 14 13 11 9 7 5 4 6 6 6 6 6 6 7 7 6 5 4 3 3 3 4 3 2 1 0 0 -0 -0 -0 0 0 0 1 0 0 -0 -0 -0 0
18 18 17 15 14 14 13 10 7 6 5 5 5 5 5 5 5 6 6 6 6 5 4 3 3 4 4 3 2 1 1 0 0 -0 -0 -0 0 0 1 1 0 0 -0 -0 0
18 18 17 15 14 13 12 8 6 6 5 5 4 4 4 4 5 5 5 5 5 5 4 3 3 4 4 3 2 1 1 1 0 -0 -0 0 0 0 0 1 1 0 -0 -0 -0
18 18 16 15 14 13 11 8 6 6 5 5 4 3 3 3 4 5 5 5 5 5 4 3 2 3 3 3 2 2 2 1 0 0 0 0 0 0 0 1 1 1 -0 -1 -1
18 17 15 14 14 12 10 8 7 7 6 4 4 3 3 3 3 4 5 5 5 5 4 3 2 2 3 2 2 2 2 1 1 0 -0 -0 -0 0 0 1 1 1 -0 -1 -1
17 15 13 13 13 12 10 9 9 8 6 5 4 4 3 3 3 4 4 5 5 5 4 3 2 2 2 2 2 1 1 1 1 1 0 -0 -0 0 1 1 1 -0 -1 -1 -1
16 14 12 11 11 11 10 10 10 8 7 6 5 4 4 3 4 4 3 4 4 4 4 3 3 2 2 2 2 1 1 1 1 1 1 0 0 0 1 1 0 -0 -1 -1 -1
15 13 11 11 10 11 11 10 10 9 7 6 5 4 4 3 3 3 3 2 3 3 3 3 2 2 2 2 2 1 1 0 1 1 1 0 0 1 1 1 0 -0 -1 -1 -1
12 11 10 10 10 10 10 10 10 9 8 7 6 5 4 3 3 3 3 2 2 2 2 2 2 2 2 1 1 1 1 -0 0 1 1 1 0 1 1 1 1 -1 -1 -2 -2
9 8 8 9 9 9 10 10 10 9 8 7 6 5 4 3 3 3 2 2 1 1 1 0 1 1 1 1 1 1 0 -0 -0 0 0 1 1 1 1 1 -0 -1 -2 -2 -2
7 7 7 8 8 9 9 9 9 9 8 8 7 6 5 3 3 3 3 2 2 1 0 0 0 1 1 1 1 0 0 0 -0 -0 -0 0 1 1 1 0 -1 -3 -3 -2 -2
6 6 6 7 8 8 8 9 9 9 8 8 7 6 5 4 4 4 3 3 2 1 1 0 -0 -0 0 1 0 0 0 0 -0 -0 -0 0 1 1 1 0 -2 -4 -4 -3 -3